Location: Columbus
(35.2256°N, 82.1549°W)
Time: 17:07:05
(UTC-05:00)

ISS - Pass Details

Date: 07 December 2021
Orbit: 413 x 422 km, 51.6° (Epoch: 23 January)

Event Time Altitude Azimuth Distance (km) Brightness Sun altitude
Rises 18:56:16 0° 307° (NW) 2,374 0.6 -19.9°
Reaches altitude 10° 18:58:25 10° 301° (WNW) 1,504 -0.4 -20.3°
Maximum altitude 19:01:41 48° 226° (SW) 555 -2.9 -21.0°
Enters shadow 19:02:40 35° 177° (S) 696 -2.6 -21.2°
